Location: Bouchavesnes-Bergen
(49.9859°N, 2.9203°E)
Time: 00:10:33
(UTC+00:00)

ATLAS 3B R/B - Pass Details

Date: 09 March 2021
Orbit: 1006 x 1189 km, 63.8° (Epoch: 12 April)

Event Time Altitude Azimuth Distance (km) Brightness Sun altitude
Rises 04:58:00 0° 317° (NW) 3,852 5.3 -13.1°
Reaches altitude 10° 05:00:36 10° 319° (NW) 2,919 4.7 -12.7°
Maximum altitude 05:07:34 79° 46° (NE) 1,136 2.9 -11.6°
Drops below altitude 10° 05:14:50 10° 134° (SE) 3,039 5.7 -10.4°
Sets 05:17:35 0° 135° (SE) 4,019 6.3 -10.0°
